sat.trackr.live / text

‹ back to catalog

STARLINK-5034

NORAD 53888 · 2022-119C

PAYLOAD ACTIVE UNKNOWN

§ Identity

Operator
Country
US
Launch date
2022-09-24
Launch site
AFETR
Launch vehicle
Mass (kg)
RCS (m²)

Purposes: comms

External: N2YO · Heavens-Above · Gunter

§ Orbital elements

Epoch: 2026-07-01T22:03:41.174784Z

Period
87.53 min
Inclination
53.1966°
Eccentricity
0.0009035
Mean motion
16.45149664 rev/d
Perigee alt
146.2 km
Apogee alt
158.0 km
Semi-major
6,530.3 km
B*
2.3368e-4
RAAN
123.7390°
Arg perigee
244.3938°
Mean anomaly
115.6179°
Rev number
20,959

§ Raw data

STARLINK-50341 53888U 22119C   26182.91922656  .09024339  12426-4  23368-3 0  99902 53888  53.1966 123.7390 0009035 244.3938 115.6179 16.45149664209590

JSON: /api/v1/satellites/53888 · /tle

For live sub-satellite position, see the globe view (requires WebGL).

§ Visibility from observer

Set your observer location to see the next 7 days of passes ≥ 10°. The values pass through the URL so the page stays shareable.

No JS? Fill the form by hand. The geolocation button needs JavaScript.